#timestamp,LO_Frequency,Hit,StdDev 
1502262015.2,286047001.9,N,1.3
1502262035.9,286047002.3,N,1.3
1502262055.7,286047002.3,N,1.2
1502262075.6,286046999.8,N,1.3
1502262095.4,286047002.8,N,1.3
1502262115.3,286047002.1,N,1.2
1502262135.1,286047002.7,N,1.3
1502262136.0,286047002.7,N,1.3
1502262155.8,286047001.8,N,1.2
1502262175.7,286047004.3,Y,0.0
1502262195.5,286047002.8,P,0.6
1502262215.4,286047001.5,N,0.6
1502262235.2,286047002.1,P,0.5
1502262255.0,286047002.3,Y,0.0
1502262255.9,286047002.3,P,0.2
1502262275.8,286046998.7,P,1.6
1502262295.6,286046998.7,N,1.7
1502262315.5,286046998.3,N,1.8
1502262335.3,286046998.5,N,1.7
1502262355.1,286046998.5,N,1.6
1502262375.9,286047000.7,N,1.6
1502262395.7,286046998.5,N,1.5
1502262415.6,286047001.1,N,1.5
1502262435.4,286047000.8,N,1.5
1502262455.2,286046996.5,N,1.7
1502262475.1,286046996.5,N,1.8
1502262476.0,286046996.5,N,1.9
1502262495.8,286046997.4,N,1.9
1502262515.6,286046997.3,N,1.9
1502262535.5,286046997.1,N,1.9
1502262555.3,286046997.6,N,1.8
1502262575.2,286046995.0,N,2.0
1502262595.0,286046997.9,N,1.9
1502262595.9,286046997.9,N,1.9
1502262615.7,286046995.4,N,1.9
1502262635.6,286046996.2,N,1.9
1502262655.4,286046995.0,N,2.0
1502262675.3,286046995.2,N,2.1
1502262695.1,286046996.1,N,2.0
1502262715.8,286046993.4,Y,0.0
1502262735.7,286046997.8,P,0.1
1502262755.5,286046995.0,P,1.3
1502262775.4,286046995.1,P,1.4
1502262795.2,286046995.5,Y,0.0
1502262815.0,286046998.5,P,1.0
1502262815.9,286046998.5,N,1.0
1502262835.8,286046999.1,N,1.0
1502262855.6,286046998.8,N,0.9
1502262875.5,286046997.3,N,0.9
1502262895.3,286046996.9,Y,0.0
1502262915.1,286046998.1,P,0.0
1502262935.9,286046998.4,P,0.1
1502262955.7,286046998.5,P,0.2
1502262975.6,286046998.9,Y,0.0
1502262995.4,286047001.0,P,1.4
1502263015.2,286047000.8,N,1.2
1502263035.1,286046998.1,N,1.4
1502263036.0,286046998.1,N,1.3
1502263055.8,286046998.1,N,1.3
1502263075.7,286047001.2,N,1.4
1502263095.5,286046998.5,N,1.4
1502263115.3,286047000.8,N,1.4
1502263135.2,286047001.0,N,1.4
1502263155.0,286047000.8,N,1.4
1502263155.9,286047000.8,N,1.3
1502263175.8,286046998.3,N,1.3
1502263195.6,286046996.6,N,1.5
1502263215.4,286046999.1,N,1.5
1502263235.3,286046996.5,N,1.6
1502263255.1,286046999.6,N,1.5
1502263275.9,286046999.3,N,1.5
1502263295.7,286046996.8,N,1.6
1502263315.5,286046997.1,N,1.6
1502263335.4,286046996.9,N,1.6
1502263355.2,286046999.2,N,1.6
1502263375.1,286046999.5,N,1.5
1502263376.0,286046999.5,N,1.5
1502263395.8,286046999.6,N,1.5
1502263415.6,286046997.4,N,1.5
1502263435.5,286046999.1,N,1.5
1502263455.3,286046999.3,N,1.4
1502263475.2,286046996.7,N,1.5
1502263495.9,286046996.9,N,1.5
1502263515.7,286046996.6,N,1.5
1502263535.6,286046997.7,N,1.5
1502263555.4,286046999.5,N,1.5
1502263575.3,286046996.6,N,1.5
1502263595.1,286046996.9,N,1.5
1502263596.0,286046996.9,N,1.6
1502263615.8,286046999.5,N,1.5
1502263635.7,286046997.1,N,1.5
1502263655.5,286046996.7,N,1.5
1502263675.4,286046997.5,N,1.4
1502263695.2,286046997.8,N,1.3
1502263715.0,286046995.0,Y,0.0
1502263715.9,286046995.0,P,1.5
1502263735.8,286046998.7,N,1.6
1502263755.6,286046998.7,N,1.5
1502263775.5,286046999.4,N,1.5
1502263795.3,286046999.1,N,1.5
1502263815.1,286046998.8,N,1.4
1502263835.9,286046998.6,N,1.3
1502263855.7,286046998.4,N,1.2
1502263875.6,286046997.0,N,1.2
1502263895.4,286046997.0,N,1.2
1502263915.2,286046997.2,N,1.2
1502263935.1,286046997.3,N,1.2
1502263936.0,286046997.3,N,1.1
1502263955.8,286046997.1,N,1.1
1502263975.6,286046997.4,N,1.1
1502263995.5,286046997.4,N,1.0
1502264015.3,286046997.8,N,1.0
1502264035.2,286046997.5,N,1.0
1502264055.0,286046997.5,N,1.0
1502264055.9,286046997.5,N,0.9
1502264075.8,286046997.1,Y,0.0
1502264095.6,286047000.6,P,1.4
1502264115.4,286047000.6,N,1.3
1502264135.3,286047000.9,N,1.3
1502264155.1,286047000.6,N,1.2
1502264175.9,286047000.6,N,1.1
1502264195.7,286047000.7,N,1.0
1502264215.5,286047000.2,N,1.0
1502264235.4,286047000.9,N,0.9
1502264255.2,286047000.3,N,0.9
1502264275.0,286046999.7,N,0.9
1502264276.0,286046999.7,N,0.8
1502264295.8,286046999.9,N,0.8
1502264315.6,286047002.4,N,1.0
1502264335.5,286047002.0,N,1.0
1502264355.3,286047001.9,N,1.0
1502264375.1,286047002.6,N,1.1
1502264395.9,286047002.6,N,1.2
1502264415.7,286047002.6,N,1.2
1502264435.6,286047002.5,N,1.2
1502264455.4,286047002.0,N,1.2
1502264475.2,286047002.0,N,1.2
1502264495.1,286047002.7,N,1.2
1502264496.0,286047002.7,N,1.3
1502264515.8,286047001.6,N,1.2
1502264535.7,286047001.8,N,1.2
1502264555.5,286047002.2,N,1.2
1502264575.3,286047002.0,N,1.2
1502264595.2,286047002.1,N,1.2
1502264615.0,286047001.9,N,1.2
1502264615.9,286047001.9,N,1.0
1502264635.7,286047001.4,N,0.9
1502264655.6,286047004.1,Y,0.0
1502264675.4,286047002.6,P,0.6
1502264695.3,286047002.3,P,0.5
1502264715.1,286047001.8,P,0.4
1502264735.8,286047001.8,Y,0.0
1502264755.7,286047000.7,P,0.7
1502264775.5,286047000.6,N,0.7
1502264795.4,286047000.2,N,0.7
1502264815.2,286047002.3,Y,0.0
1502264835.0,286047000.9,P,0.0
1502264835.9,286047000.9,P,0.0
1502264885.8,286046998.5,E,nan
1502264895.7,286047000.9,N,0.0
1502264915.6,286046999.7,P,0.6
1502264935.4,286047000.2,N,0.5
1502264955.3,286047000.2,N,0.4
1502264975.1,286047002.1,Y,0.0
1502264995.8,286047001.9,P,0.8
1502265015.7,286047002.1,N,0.8
1502265035.5,286046999.7,N,1.0
1502265055.4,286047002.3,N,1.1
1502265075.2,286047004.3,Y,0.0
1502265095.0,286047000.4,P,0.4
1502265095.9,286047000.4,N,0.4
1502265115.8,286047002.8,P,1.0
1502265135.6,286047002.4,N,1.0
1502265155.5,286047000.5,N,1.0
1502265175.3,286047001.0,N,0.9
1502265195.1,286047000.9,N,0.9
1502265215.9,286046998.6,N,1.2
1502265235.7,286046998.5,N,1.3
1502265255.5,286047001.2,N,1.3
1502265275.4,286046999.8,N,1.2
1502265295.2,286047000.4,N,1.2
1502265315.1,286047000.1,N,1.2
1502265316.0,286047000.1,N,1.1
1502265335.8,286047011.9,Y,0.0
1502265355.6,286046999.7,P,0.4
1502265375.5,286047000.5,N,0.4
1502265395.3,286047001.6,P,0.7
1502265415.2,286046999.9,N,0.7
1502265435.9,286047000.4,N,0.6
1502265455.7,286047001.1,N,0.6
1502265475.6,286047001.0,N,0.6
1502265495.4,286047000.3,N,0.6
1502265515.3,286047000.0,N,0.6
1502265535.1,286047002.8,Y,0.0
1502265536.0,286047002.8,P,1.1
1502265555.8,286047000.1,N,1.2
1502265575.7,286047001.8,N,1.1
1502265595.5,286046999.8,N,1.1
